Location: Grust
(42.8833°N, 0.0333°W)
Time: 20:05:19
(UTC+00:00)

FALCON 9 DEB - Pass Details

Date: 25 October 2020
Orbit: 378 x 397 km, 53.0° (Epoch: 22 November)

Event Time Altitude Azimuth Distance (km) Brightness Sun altitude
Rises 17:21:56 0° 208° (SSW) 2,296 7.5 -4.4°
Reaches altitude 10° 17:24:09 10° 197° (SSW) 1,439 6.2 -4.8°
Maximum altitude 17:27:00 29° 135° (SE) 762 4.1 -5.3°
Drops below altitude 10° 17:29:50 10° 73° (ENE) 1,439 5.1 -5.8°
Enters shadow 17:30:21 - 69° (ENE) 1,628 5.4 -5.9°
